contact:dominique.lefevre@mio.osupytheas.fr, maurice.libes@osupytheas.fr, didier.mallarino@osupytheas.fr
Project:EMSO http://www.emso-fr.org/EMSO-France
Depth: 2436.0 m
Title:EMSO Ligure Ouest : Data MII capteur MICROCAT
DateTime_Computer,Latitude,Longitude,Temperature,Conductivity,Pressure,DateTime_Instrument
DateTime_Computer,Latitude,Longitude,degC,S m-1,dbar,DateTime_Instrument
2020-04-09T00:02:59Z,42.805,6.029,13.2982,4.59995,2469.947,2020-4-09T02:03:38Z
2020-04-09T00:06:03Z,42.805,6.029,13.2984,4.60001,2469.937,2020-4-09T02:06:42Z
2020-04-09T00:09:06Z,42.805,6.029,13.2979,4.60006,2469.937,2020-4-09T02:09:45Z
2020-04-09T00:12:09Z,42.805,6.029,13.2975,4.60027,2469.9,2020-4-09T02:12:48Z
2020-04-09T00:15:12Z,42.805,6.029,13.2983,4.60011,2469.9,2020-4-09T02:15:51Z
2020-04-09T00:18:16Z,42.805,6.029,13.2977,4.60033,2469.9,2020-4-09T02:18:55Z
2020-04-09T00:21:19Z,42.805,6.029,13.2974,4.60006,2469.914,2020-4-09T02:21:58Z
2020-04-09T00:24:22Z,42.805,6.029,13.2983,4.60021,2469.923,2020-4-09T02:25:01Z
2020-04-09T00:27:25Z,42.805,6.029,13.2979,4.60015,2469.923,2020-4-09T02:28:04Z
2020-04-09T00:30:29Z,42.805,6.029,13.2993,4.60031,2469.914,2020-4-09T02:31:08Z
2020-04-09T00:33:32Z,42.805,6.029,13.2990,4.60012,2469.9,2020-4-09T02:34:11Z
2020-04-09T00:36:35Z,42.805,6.029,13.2979,4.60005,2469.9,2020-4-09T02:37:14Z
2020-04-09T00:39:38Z,42.805,6.029,13.2977,4.60021,2469.9,2020-4-09T02:40:17Z
2020-04-09T00:42:41Z,42.805,6.029,13.2979,4.60007,2469.914,2020-4-09T02:43:21Z
2020-04-09T00:45:45Z,42.805,6.029,13.2982,4.60013,2469.937,2020-4-09T02:46:24Z
2020-04-09T00:48:48Z,42.805,6.029,13.2979,4.60000,2469.9,2020-4-09T02:49:27Z
2020-04-09T00:51:51Z,42.805,6.029,13.2986,4.60016,2469.923,2020-4-09T02:52:30Z
2020-04-09T00:54:54Z,42.805,6.029,13.2982,4.60005,2469.909,2020-4-09T02:55:33Z
2020-04-09T00:57:58Z,42.805,6.029,13.2987,4.60015,2469.914,2020-4-09T02:58:37Z
2020-04-09T01:01:01Z,42.805,6.029,13.2983,4.60009,2469.876,2020-4-09T03:01:40Z
2020-04-09T01:04:04Z,42.805,6.029,13.2980,4.59988,2469.937,2020-4-09T03:04:43Z
2020-04-09T01:07:07Z,42.805,6.029,13.2982,4.59997,2469.914,2020-4-09T03:07:46Z
2020-04-09T01:10:11Z,42.805,6.029,13.2972,4.59992,2469.853,2020-4-09T03:10:50Z
2020-04-09T01:13:14Z,42.805,6.029,13.2986,4.60001,2469.876,2020-4-09T03:13:53Z
2020-04-09T01:16:17Z,42.805,6.029,13.2976,4.59997,2469.853,2020-4-09T03:16:56Z
2020-04-09T01:19:20Z,42.805,6.029,13.2974,4.60002,2469.876,2020-4-09T03:20:00Z
2020-04-09T01:22:24Z,42.805,6.029,13.2979,4.60014,2469.83,2020-4-09T03:23:03Z
2020-04-09T01:25:27Z,42.805,6.029,13.2978,4.60013,2469.853,2020-4-09T03:26:06Z
2020-04-09T01:28:30Z,42.805,6.029,13.2976,4.60003,2469.867,2020-4-09T03:29:09Z
2020-04-09T01:31:33Z,42.805,6.029,13.2979,4.60014,2469.89,2020-4-09T03:32:12Z
2020-04-09T01:34:37Z,42.805,6.029,13.2975,4.60002,2469.853,2020-4-09T03:35:16Z
2020-04-09T01:37:40Z,42.805,6.029,13.2976,4.60006,2469.914,2020-4-09T03:38:19Z
2020-04-09T01:40:43Z,42.805,6.029,13.2980,4.60004,2469.853,2020-4-09T03:41:22Z
2020-04-09T01:43:46Z,42.805,6.029,13.2974,4.60021,2469.89,2020-4-09T03:44:25Z
2020-04-09T01:46:49Z,42.805,6.029,13.2976,4.60006,2469.853,2020-4-09T03:47:29Z
2020-04-09T01:49:53Z,42.805,6.029,13.2974,4.59996,2469.853,2020-4-09T03:50:32Z
2020-04-09T01:52:56Z,42.805,6.029,13.2974,4.60000,2469.9,2020-4-09T03:53:35Z
2020-04-09T01:55:59Z,42.805,6.029,13.2982,4.60008,2469.876,2020-4-09T03:56:38Z
2020-04-09T01:59:02Z,42.805,6.029,13.2976,4.60008,2469.853,2020-4-09T03:59:41Z
2020-04-09T02:02:06Z,42.805,6.029,13.2979,4.59998,2469.853,2020-4-09T04:02:45Z
2020-04-09T02:05:09Z,42.805,6.029,13.2979,4.60002,2469.89,2020-4-09T04:05:48Z
2020-04-09T02:08:12Z,42.805,6.029,13.2981,4.59994,2469.853,2020-4-09T04:08:51Z
2020-04-09T02:11:16Z,42.805,6.029,13.2976,4.59999,2469.83,2020-4-09T04:11:55Z
2020-04-09T02:14:19Z,42.805,6.029,13.2972,4.60009,2469.867,2020-4-09T04:14:58Z
2020-04-09T02:17:22Z,42.805,6.029,13.2980,4.60009,2469.853,2020-4-09T04:18:01Z
2020-04-09T02:20:25Z,42.805,6.029,13.2976,4.59999,2469.876,2020-4-09T04:21:04Z
2020-04-09T02:23:28Z,42.805,6.029,13.2977,4.60011,2469.867,2020-4-09T04:24:08Z
2020-04-09T02:26:32Z,42.805,6.029,13.2980,4.60006,2469.844,2020-4-09T04:27:11Z
2020-04-09T02:29:35Z,42.805,6.029,13.2974,4.60001,2469.853,2020-4-09T04:30:14Z
2020-04-09T02:32:38Z,42.805,6.029,13.2974,4.60009,2469.853,2020-4-09T04:33:18Z
2020-04-09T02:35:42Z,42.805,6.029,13.2982,4.60016,2469.876,2020-4-09T04:36:21Z
2020-04-09T02:38:45Z,42.805,6.029,13.2980,4.60001,2469.844,2020-4-09T04:39:24Z
2020-04-09T02:41:48Z,42.805,6.029,13.2976,4.60017,2469.853,2020-4-09T04:42:27Z
2020-04-09T02:44:52Z,42.805,6.029,13.2983,4.60013,2469.853,2020-4-09T04:45:31Z
2020-04-09T02:47:55Z,42.805,6.029,13.2980,4.60006,2469.853,2020-4-09T04:48:34Z
2020-04-09T02:50:58Z,42.805,6.029,13.2981,4.60009,2469.853,2020-4-09T04:51:37Z
2020-04-09T02:54:01Z,42.805,6.029,13.2988,4.60023,2469.876,2020-4-09T04:54:40Z
2020-04-09T02:57:05Z,42.805,6.029,13.2983,4.60019,2469.876,2020-4-09T04:57:44Z
2020-04-09T03:00:08Z,42.805,6.029,13.2978,4.60001,2469.863,2020-4-09T05:00:47Z
2020-04-09T03:03:11Z,42.805,6.029,13.2985,4.60020,2469.867,2020-4-09T05:03:50Z
2020-04-09T03:06:14Z,42.805,6.029,13.2991,4.60014,2469.89,2020-4-09T05:06:53Z
2020-04-09T03:09:17Z,42.805,6.029,13.2981,4.60042,2469.89,2020-4-09T05:09:56Z
2020-04-09T03:12:21Z,42.805,6.029,13.2982,4.60019,2469.89,2020-4-09T05:13:00Z
2020-04-09T03:15:24Z,42.805,6.029,13.2993,4.60030,2469.89,2020-4-09T05:16:03Z
2020-04-09T03:18:27Z,42.805,6.029,13.2991,4.60029,2469.876,2020-4-09T05:19:06Z
2020-04-09T03:21:30Z,42.805,6.029,13.2982,4.60008,2469.876,2020-4-09T05:22:09Z
2020-04-09T03:24:33Z,42.805,6.029,13.2980,4.60034,2469.876,2020-4-09T05:25:13Z
2020-04-09T03:27:37Z,42.805,6.029,13.2982,4.60012,2469.89,2020-4-09T05:28:16Z
2020-04-09T03:30:40Z,42.805,6.029,13.2981,4.59997,2469.853,2020-4-09T05:31:19Z
2020-04-09T03:33:43Z,42.805,6.029,13.2979,4.60017,2469.876,2020-4-09T05:34:22Z
2020-04-09T03:36:46Z,42.805,6.029,13.2983,4.60025,2469.89,2020-4-09T05:37:26Z
2020-04-09T03:39:50Z,42.805,6.029,13.2979,4.60011,2469.9,2020-4-09T05:40:29Z
2020-04-09T03:42:53Z,42.805,6.029,13.2990,4.60023,2469.853,2020-4-09T05:43:32Z
2020-04-09T03:45:56Z,42.805,6.029,13.2998,4.60018,2469.89,2020-4-09T05:46:35Z
2020-04-09T03:48:59Z,42.805,6.029,13.2979,4.60017,2469.9,2020-4-09T05:49:38Z
2020-04-09T03:52:02Z,42.805,6.029,13.3000,4.60003,2469.914,2020-4-09T05:52:42Z
2020-04-09T03:55:06Z,42.805,6.029,13.2988,4.60021,2469.923,2020-4-09T05:55:45Z
2020-04-09T03:58:09Z,42.805,6.029,13.2979,4.60004,2469.914,2020-4-09T05:58:48Z
2020-04-09T04:01:12Z,42.805,6.029,13.2978,4.60026,2469.9,2020-4-09T06:01:52Z
2020-04-09T04:04:16Z,42.805,6.029,13.2975,4.60025,2469.9,2020-4-09T06:04:55Z
2020-04-09T04:07:19Z,42.805,6.029,13.2979,4.60010,2469.937,2020-4-09T06:07:58Z
2020-04-09T04:10:22Z,42.805,6.029,13.2987,4.60011,2469.876,2020-4-09T06:11:01Z
2020-04-09T04:13:25Z,42.805,6.029,13.3000,4.60041,2469.947,2020-4-09T06:14:04Z
2020-04-09T04:16:28Z,42.805,6.029,13.2989,4.60029,2469.9,2020-4-09T06:17:08Z
2020-04-09T04:19:32Z,42.805,6.029,13.2982,4.60003,2469.923,2020-4-09T06:20:11Z
2020-04-09T04:22:35Z,42.805,6.029,13.2986,4.60019,2469.937,2020-4-09T06:23:14Z
2020-04-09T04:25:38Z,42.805,6.029,13.2995,4.59999,2469.97,2020-4-09T06:26:18Z
2020-04-09T04:28:42Z,42.805,6.029,13.2976,4.60000,2469.937,2020-4-09T06:29:21Z
2020-04-09T04:31:45Z,42.805,6.029,13.2995,4.60001,2469.96,2020-4-09T06:32:24Z
2020-04-09T04:34:48Z,42.805,6.029,13.2975,4.60014,2469.97,2020-4-09T06:35:27Z
2020-04-09T04:37:51Z,42.805,6.029,13.2983,4.60024,2469.947,2020-4-09T06:38:30Z
2020-04-09T04:40:55Z,42.805,6.029,13.2978,4.60022,2469.947,2020-4-09T06:41:34Z
2020-04-09T04:43:58Z,42.805,6.029,13.2994,4.60039,2469.96,2020-4-09T06:44:37Z
2020-04-09T04:47:01Z,42.805,6.029,13.2986,4.60014,2469.947,2020-4-09T06:47:40Z
2020-04-09T04:50:05Z,42.805,6.029,13.2986,4.60026,2469.97,2020-4-09T06:50:44Z
2020-04-09T04:53:08Z,42.805,6.029,13.2989,4.60032,2469.923,2020-4-09T06:53:47Z
2020-04-09T04:56:11Z,42.805,6.029,13.3004,4.60015,2469.97,2020-4-09T06:56:50Z
2020-04-09T04:59:14Z,42.805,6.029,13.2993,4.60010,2469.97,2020-4-09T06:59:53Z
2020-04-09T05:02:17Z,42.805,6.029,13.2972,4.60003,2469.993,2020-4-09T07:02:57Z
2020-04-09T05:05:21Z,42.805,6.029,13.2972,4.59999,2470.007,2020-4-09T07:06:00Z
2020-04-09T05:08:24Z,42.805,6.029,13.2979,4.60013,2469.984,2020-4-09T07:09:03Z
2020-04-09T05:11:27Z,42.805,6.029,13.2982,4.60005,2469.97,2020-4-09T07:12:06Z
2020-04-09T05:14:30Z,42.805,6.029,13.2986,4.60011,2469.993,2020-4-09T07:15:09Z
2020-04-09T05:17:34Z,42.805,6.029,13.2983,4.60001,2469.993,2020-4-09T07:18:13Z
2020-04-09T05:20:37Z,42.805,6.029,13.2980,4.60002,2470.007,2020-4-09T07:21:16Z
2020-04-09T05:23:40Z,42.805,6.029,13.2979,4.60003,2470.017,2020-4-09T07:24:19Z
2020-04-09T05:26:43Z,42.805,6.029,13.2976,4.60000,2470.03,2020-4-09T07:27:22Z
2020-04-09T05:29:46Z,42.805,6.029,13.2987,4.60003,2470.017,2020-4-09T07:30:26Z
2020-04-09T05:32:50Z,42.805,6.029,13.2987,4.60013,2470.04,2020-4-09T07:33:29Z
2020-04-09T05:35:53Z,42.805,6.029,13.2988,4.60021,2469.993,2020-4-09T07:36:32Z
2020-04-09T05:38:56Z,42.805,6.029,13.2980,4.60004,2470.053,2020-4-09T07:39:35Z
2020-04-09T05:42:00Z,42.805,6.029,13.2989,4.60005,2470.04,2020-4-09T07:42:39Z
2020-04-09T05:45:03Z,42.805,6.029,13.2981,4.60004,2470.017,2020-4-09T07:45:42Z
2020-04-09T05:48:06Z,42.805,6.029,13.2982,4.60015,2470.04,2020-4-09T07:48:45Z
2020-04-09T05:51:09Z,42.805,6.029,13.2983,4.60006,2470.053,2020-4-09T07:51:48Z
2020-04-09T05:54:12Z,42.805,6.029,13.2983,4.59999,2470.03,2020-4-09T07:54:52Z
2020-04-09T05:57:16Z,42.805,6.029,13.2980,4.59991,2470.053,2020-4-09T07:57:55Z
2020-04-09T06:00:19Z,42.805,6.029,13.2983,4.60006,2470.04,2020-4-09T08:00:58Z
2020-04-09T06:03:23Z,42.805,6.029,13.2979,4.60010,2470.04,2020-4-09T08:04:02Z
2020-04-09T06:06:26Z,42.805,6.029,13.2987,4.60018,2470.1,2020-4-09T08:07:05Z
2020-04-09T06:09:29Z,42.805,6.029,13.2979,4.60021,2470.087,2020-4-09T08:10:08Z
2020-04-09T06:12:32Z,42.805,6.029,13.2982,4.60001,2470.1,2020-4-09T08:13:11Z
2020-04-09T06:15:35Z,42.805,6.029,13.2981,4.60014,2470.063,2020-4-09T08:16:15Z
2020-04-09T06:18:39Z,42.805,6.029,13.2990,4.60016,2470.087,2020-4-09T08:19:18Z
2020-04-09T06:21:42Z,42.805,6.029,13.2979,4.60012,2470.063,2020-4-09T08:22:21Z
2020-04-09T06:24:45Z,42.805,6.029,13.2976,4.60009,2470.063,2020-4-09T08:25:24Z
2020-04-09T06:27:48Z,42.805,6.029,13.2980,4.60000,2470.063,2020-4-09T08:28:27Z
2020-04-09T06:30:52Z,42.805,6.029,13.2990,4.60018,2470.063,2020-4-09T08:31:31Z
2020-04-09T06:33:55Z,42.805,6.029,13.2982,4.60028,2470.11,2020-4-09T08:34:34Z
2020-04-09T06:36:58Z,42.805,6.029,13.2983,4.60031,2470.087,2020-4-09T08:37:37Z
2020-04-09T06:40:01Z,42.805,6.029,13.2984,4.60013,2470.124,2020-4-09T08:40:41Z
2020-04-09T06:43:05Z,42.805,6.029,13.2985,4.60007,2470.1,2020-4-09T08:43:44Z
2020-04-09T06:46:08Z,42.805,6.029,13.2979,4.60010,2470.087,2020-4-09T08:46:47Z
2020-04-09T06:49:11Z,42.805,6.029,13.2987,4.60008,2470.11,2020-4-09T08:49:50Z
2020-04-09T06:52:14Z,42.805,6.029,13.2986,4.60002,2470.11,2020-4-09T08:52:54Z
2020-04-09T06:55:18Z,42.805,6.029,13.2982,4.60020,2470.11,2020-4-09T08:55:57Z
2020-04-09T06:58:21Z,42.805,6.029,13.2986,4.60011,2470.087,2020-4-09T08:59:00Z
2020-04-09T07:01:24Z,42.805,6.029,13.2979,4.60010,2470.11,2020-4-09T09:02:03Z
2020-04-09T07:04:27Z,42.805,6.029,13.2981,4.60005,2470.11,2020-4-09T09:05:07Z
2020-04-09T07:07:31Z,42.805,6.029,13.2984,4.60041,2470.124,2020-4-09T09:08:10Z
2020-04-09T07:10:34Z,42.805,6.029,13.2976,4.60030,2470.133,2020-4-09T09:11:13Z
2020-04-09T07:13:37Z,42.805,6.029,13.2975,4.60009,2470.124,2020-4-09T09:14:16Z
2020-04-09T07:16:40Z,42.805,6.029,13.3013,4.60023,2470.1,2020-4-09T09:17:19Z
2020-04-09T07:19:44Z,42.805,6.029,13.2986,4.59984,2470.147,2020-4-09T09:20:23Z
2020-04-09T07:22:47Z,42.805,6.029,13.3000,4.60023,2470.156,2020-4-09T09:23:26Z
2020-04-09T07:25:50Z,42.805,6.029,13.2978,4.60021,2470.11,2020-4-09T09:26:29Z
2020-04-09T07:28:53Z,42.805,6.029,13.2988,4.60026,2470.11,2020-4-09T09:29:32Z
2020-04-09T07:31:56Z,42.805,6.029,13.2986,4.60016,2470.147,2020-4-09T09:32:36Z
2020-04-09T07:35:00Z,42.805,6.029,13.2977,4.60009,2470.124,2020-4-09T09:35:39Z
2020-04-09T07:38:03Z,42.805,6.029,13.2979,4.60008,2470.171,2020-4-09T09:38:42Z
2020-04-09T07:41:06Z,42.805,6.029,13.2978,4.60003,2470.11,2020-4-09T09:41:45Z
2020-04-09T07:44:10Z,42.805,6.029,13.2981,4.60003,2470.147,2020-4-09T09:44:49Z
2020-04-09T07:47:13Z,42.805,6.029,13.2988,4.60029,2470.11,2020-4-09T09:47:52Z
2020-04-09T07:50:16Z,42.805,6.029,13.2981,4.60008,2470.11,2020-4-09T09:50:55Z
2020-04-09T07:53:19Z,42.805,6.029,13.2990,4.60027,2470.156,2020-4-09T09:53:58Z
2020-04-09T07:56:22Z,42.805,6.029,13.2994,4.60021,2470.133,2020-4-09T09:57:02Z
2020-04-09T07:59:26Z,42.805,6.029,13.2982,4.60041,2470.133,2020-4-09T10:00:05Z
2020-04-09T08:02:29Z,42.805,6.029,13.2985,4.60022,2470.133,2020-4-09T10:03:08Z
2020-04-09T08:05:32Z,42.805,6.029,13.2996,4.60034,2470.11,2020-4-09T10:06:11Z
2020-04-09T08:08:36Z,42.805,6.029,13.2989,4.60029,2470.087,2020-4-09T10:09:15Z
2020-04-09T08:11:39Z,42.805,6.029,13.2976,4.60009,2470.133,2020-4-09T10:12:18Z
2020-04-09T08:14:42Z,42.805,6.029,13.2988,4.60013,2470.147,2020-4-09T10:15:21Z
2020-04-09T08:17:46Z,42.805,6.029,13.2990,4.60033,2470.11,2020-4-09T10:18:25Z
2020-04-09T08:20:49Z,42.805,6.029,13.2992,4.60011,2470.11,2020-4-09T10:21:28Z
2020-04-09T08:23:52Z,42.805,6.029,13.2990,4.60039,2470.156,2020-4-09T10:24:31Z
2020-04-09T08:26:55Z,42.805,6.029,13.2975,4.60038,2470.124,2020-4-09T10:27:34Z
2020-04-09T08:29:58Z,42.805,6.029,13.2982,4.60019,2470.11,2020-4-09T10:30:38Z
2020-04-09T08:33:02Z,42.805,6.029,13.2983,4.60004,2470.11,2020-4-09T10:33:41Z
2020-04-09T08:36:05Z,42.805,6.029,13.2983,4.60016,2470.133,2020-4-09T10:36:44Z
2020-04-09T08:39:08Z,42.805,6.029,13.2975,4.60014,2470.133,2020-4-09T10:39:47Z
2020-04-09T08:42:12Z,42.805,6.029,13.3001,4.60039,2470.133,2020-4-09T10:42:51Z
2020-04-09T08:45:15Z,42.805,6.029,13.3000,4.60051,2470.124,2020-4-09T10:45:54Z
2020-04-09T08:48:18Z,42.805,6.029,13.2993,4.60044,2470.11,2020-4-09T10:48:57Z
2020-04-09T08:51:21Z,42.805,6.029,13.2986,4.60039,2470.133,2020-4-09T10:52:00Z
2020-04-09T08:54:24Z,42.805,6.029,13.2987,4.60029,2470.11,2020-4-09T10:55:03Z
2020-04-09T08:57:28Z,42.805,6.029,13.3004,4.60034,2470.124,2020-4-09T10:58:07Z
2020-04-09T09:00:31Z,42.805,6.029,13.2982,4.60013,2470.077,2020-4-09T11:01:10Z
2020-04-09T09:03:34Z,42.805,6.029,13.2982,4.60006,2470.124,2020-4-09T11:04:13Z
2020-04-09T09:06:37Z,42.805,6.029,13.2981,4.60004,2470.11,2020-4-09T11:07:16Z
2020-04-09T09:09:40Z,42.805,6.029,13.2986,4.60010,2470.11,2020-4-09T11:10:20Z
2020-04-09T09:12:44Z,42.805,6.029,13.2976,4.60010,2470.133,2020-4-09T11:13:23Z
2020-04-09T09:15:47Z,42.805,6.029,13.2986,4.60009,2470.124,2020-4-09T11:16:26Z
2020-04-09T09:18:50Z,42.805,6.029,13.2976,4.60003,2470.087,2020-4-09T11:19:29Z
2020-04-09T09:21:53Z,42.805,6.029,13.2988,4.60026,2470.11,2020-4-09T11:22:32Z
2020-04-09T09:24:57Z,42.805,6.029,13.2992,4.60001,2470.11,2020-4-09T11:25:36Z
2020-04-09T09:28:00Z,42.805,6.029,13.2990,4.60016,2470.063,2020-4-09T11:28:39Z
2020-04-09T09:31:03Z,42.805,6.029,13.2983,4.59991,2470.11,2020-4-09T11:31:42Z
2020-04-09T09:34:06Z,42.805,6.029,13.2976,4.59991,2470.077,2020-4-09T11:34:45Z
2020-04-09T09:37:10Z,42.805,6.029,13.2981,4.60017,2470.1,2020-4-09T11:37:49Z
2020-04-09T09:40:13Z,42.805,6.029,13.2988,4.60042,2470.077,2020-4-09T11:40:52Z
2020-04-09T09:43:16Z,42.805,6.029,13.2980,4.59999,2470.063,2020-4-09T11:43:55Z
2020-04-09T09:46:19Z,42.805,6.029,13.3005,4.60021,2470.077,2020-4-09T11:46:58Z
2020-04-09T09:49:23Z,42.805,6.029,13.2977,4.60024,2470.087,2020-4-09T11:50:02Z
2020-04-09T09:52:26Z,42.805,6.029,13.2976,4.60011,2470.087,2020-4-09T11:53:05Z
2020-04-09T09:55:29Z,42.805,6.029,13.2983,4.60002,2470.1,2020-4-09T11:56:08Z
2020-04-09T09:58:32Z,42.805,6.029,13.2985,4.59999,2470.087,2020-4-09T11:59:11Z
2020-04-09T10:01:36Z,42.805,6.029,13.2979,4.59993,2470.063,2020-4-09T12:02:15Z
2020-04-09T10:04:39Z,42.805,6.029,13.2980,4.59994,2470.077,2020-4-09T12:05:18Z
2020-04-09T10:07:42Z,42.805,6.029,13.2986,4.59998,2470.1,2020-4-09T12:08:21Z
2020-04-09T10:10:45Z,42.805,6.029,13.2987,4.60011,2470.04,2020-4-09T12:11:25Z
2020-04-09T10:13:49Z,42.805,6.029,13.2991,4.60016,2470.04,2020-4-09T12:14:28Z
2020-04-09T10:16:52Z,42.805,6.029,13.2985,4.60019,2470.04,2020-4-09T12:17:31Z
2020-04-09T10:19:55Z,42.805,6.029,13.2982,4.60020,2470.063,2020-4-09T12:20:34Z
2020-04-09T10:22:59Z,42.805,6.029,13.2983,4.60023,2470.063,2020-4-09T12:23:38Z
2020-04-09T10:26:02Z,42.805,6.029,13.2982,4.60023,2470.03,2020-4-09T12:26:41Z
2020-04-09T10:29:05Z,42.805,6.029,13.2983,4.60018,2470.053,2020-4-09T12:29:44Z
2020-04-09T10:32:08Z,42.805,6.029,13.2979,4.60039,2470.04,2020-4-09T12:32:48Z
2020-04-09T10:35:12Z,42.805,6.029,13.2993,4.60025,2470.04,2020-4-09T12:35:51Z
2020-04-09T10:38:15Z,42.805,6.029,13.2990,4.60019,2470.017,2020-4-09T12:38:54Z
2020-04-09T10:41:18Z,42.805,6.029,13.2984,4.60017,2470.04,2020-4-09T12:41:57Z
2020-04-09T10:44:21Z,42.805,6.029,13.2984,4.60021,2470.03,2020-4-09T12:45:01Z
2020-04-09T10:47:25Z,42.805,6.029,13.2997,4.60001,2470.063,2020-4-09T12:48:04Z
2020-04-09T10:50:28Z,42.805,6.029,13.2980,4.60022,2470.053,2020-4-09T12:51:07Z
2020-04-09T10:53:31Z,42.805,6.029,13.2978,4.59990,2469.993,2020-4-09T12:54:10Z
2020-04-09T10:56:34Z,42.805,6.029,13.2990,4.60001,2470.03,2020-4-09T12:57:14Z
2020-04-09T10:59:38Z,42.805,6.029,13.2990,4.60001,2470.053,2020-4-09T13:00:17Z
2020-04-09T11:02:41Z,42.805,6.029,13.2981,4.60004,2469.993,2020-4-09T13:03:20Z
2020-04-09T11:05:44Z,42.805,6.029,13.2984,4.60001,2470.017,2020-4-09T13:06:23Z
2020-04-09T11:08:47Z,42.805,6.029,13.2979,4.59996,2470.017,2020-4-09T13:09:26Z
2020-04-09T11:11:50Z,42.805,6.029,13.2983,4.60004,2469.993,2020-4-09T13:12:30Z
2020-04-09T11:14:54Z,42.805,6.029,13.2974,4.59994,2470.03,2020-4-09T13:15:33Z
2020-04-09T11:17:57Z,42.805,6.029,13.2986,4.60002,2470.017,2020-4-09T13:18:36Z
2020-04-09T11:21:00Z,42.805,6.029,13.2976,4.60002,2469.993,2020-4-09T13:21:39Z
2020-04-09T11:24:04Z,42.805,6.029,13.2978,4.60011,2470.03,2020-4-09T13:24:43Z
2020-04-09T11:27:07Z,42.805,6.029,13.2985,4.60011,2469.97,2020-4-09T13:27:46Z
2020-04-09T11:30:10Z,42.805,6.029,13.2985,4.59999,2470.007,2020-4-09T13:30:50Z
2020-04-09T11:33:14Z,42.805,6.029,13.2982,4.60001,2469.984,2020-4-09T13:33:53Z
2020-04-09T11:36:17Z,42.805,6.029,13.2982,4.60009,2469.97,2020-4-09T13:36:56Z
2020-04-09T11:39:20Z,42.805,6.029,13.2979,4.60014,2469.97,2020-4-09T13:39:59Z
2020-04-09T11:42:23Z,42.805,6.029,13.2980,4.60030,2469.993,2020-4-09T13:43:02Z
2020-04-09T11:45:27Z,42.805,6.029,13.2975,4.60001,2470.017,2020-4-09T13:46:06Z
2020-04-09T11:48:30Z,42.805,6.029,13.2981,4.60009,2469.96,2020-4-09T13:49:09Z
2020-04-09T11:51:33Z,42.805,6.029,13.2980,4.59999,2469.984,2020-4-09T13:52:12Z
2020-04-09T11:54:36Z,42.805,6.029,13.2982,4.60003,2469.97,2020-4-09T13:55:16Z
2020-04-09T11:57:40Z,42.805,6.029,13.2981,4.60013,2469.96,2020-4-09T13:58:19Z
2020-04-09T12:00:43Z,42.805,6.029,13.2976,4.60012,2470.017,2020-4-09T14:01:22Z
2020-04-09T12:03:46Z,42.805,6.029,13.2979,4.60001,2469.97,2020-4-09T14:04:26Z
2020-04-09T12:06:50Z,42.805,6.029,13.2976,4.59996,2469.97,2020-4-09T14:07:29Z
2020-04-09T12:09:53Z,42.805,6.029,13.2977,4.60009,2469.947,2020-4-09T14:10:32Z
2020-04-09T12:12:56Z,42.805,6.029,13.2988,4.60006,2469.947,2020-4-09T14:13:35Z
2020-04-09T12:16:00Z,42.805,6.029,13.2992,4.60024,2469.947,2020-4-09T14:16:39Z
2020-04-09T12:19:03Z,42.805,6.029,13.2980,4.60012,2469.984,2020-4-09T14:19:42Z
2020-04-09T12:22:06Z,42.805,6.029,13.2983,4.60020,2469.984,2020-4-09T14:22:45Z
2020-04-09T12:25:09Z,42.805,6.029,13.2983,4.60010,2469.947,2020-4-09T14:25:48Z
2020-04-09T12:28:12Z,42.805,6.029,13.2976,4.60013,2469.923,2020-4-09T14:28:51Z
2020-04-09T12:31:16Z,42.805,6.029,13.2976,4.59999,2469.937,2020-4-09T14:31:55Z
2020-04-09T12:34:19Z,42.805,6.029,13.2979,4.59998,2469.97,2020-4-09T14:34:58Z
2020-04-09T12:37:22Z,42.805,6.029,13.2984,4.59996,2469.937,2020-4-09T14:38:01Z
2020-04-09T12:40:26Z,42.805,6.029,13.2978,4.60003,2469.923,2020-4-09T14:41:05Z
2020-04-09T12:43:29Z,42.805,6.029,13.2986,4.59997,2469.937,2020-4-09T14:44:08Z
2020-04-09T12:46:32Z,42.805,6.029,13.2982,4.59996,2469.876,2020-4-09T14:47:11Z
2020-04-09T12:49:35Z,42.805,6.029,13.2976,4.59998,2469.9,2020-4-09T14:50:14Z
2020-04-09T12:52:38Z,42.805,6.029,13.2979,4.59994,2469.886,2020-4-09T14:53:18Z
2020-04-09T12:55:42Z,42.805,6.029,13.2980,4.59992,2469.876,2020-4-09T14:56:21Z
2020-04-09T12:58:45Z,42.805,6.029,13.2971,4.60006,2469.9,2020-4-09T14:59:24Z
2020-04-09T13:01:48Z,42.805,6.029,13.2983,4.60001,2469.9,2020-4-09T15:02:28Z
2020-04-09T13:04:52Z,42.805,6.029,13.2979,4.59994,2469.923,2020-4-09T15:05:31Z
2020-04-09T13:07:55Z,42.805,6.029,13.2982,4.60009,2469.914,2020-4-09T15:08:34Z
2020-04-09T13:10:58Z,42.805,6.029,13.2978,4.60014,2469.876,2020-4-09T15:11:37Z
2020-04-09T13:14:01Z,42.805,6.029,13.2983,4.60020,2469.89,2020-4-09T15:14:40Z
2020-04-09T13:17:05Z,42.805,6.029,13.2981,4.60005,2469.853,2020-4-09T15:17:44Z
2020-04-09T13:20:08Z,42.805,6.029,13.2983,4.60018,2469.89,2020-4-09T15:20:47Z
2020-04-09T13:23:11Z,42.805,6.029,13.2989,4.60003,2469.876,2020-4-09T15:23:50Z
2020-04-09T13:26:14Z,42.805,6.029,13.2980,4.60002,2469.89,2020-4-09T15:26:53Z
2020-04-09T13:29:18Z,42.805,6.029,13.2990,4.60010,2469.89,2020-4-09T15:29:57Z
2020-04-09T13:32:21Z,42.805,6.029,13.2983,4.60009,2469.89,2020-4-09T15:33:00Z
2020-04-09T13:35:24Z,42.805,6.029,13.2983,4.60003,2469.876,2020-4-09T15:36:03Z
2020-04-09T13:38:27Z,42.805,6.029,13.2982,4.60008,2469.83,2020-4-09T15:39:06Z
2020-04-09T13:41:31Z,42.805,6.029,13.2988,4.60000,2469.853,2020-4-09T15:42:10Z
2020-04-09T13:44:34Z,42.805,6.029,13.2983,4.60004,2469.867,2020-4-09T15:45:13Z
2020-04-09T13:47:37Z,42.805,6.029,13.2982,4.59996,2469.867,2020-4-09T15:48:16Z
2020-04-09T13:50:41Z,42.805,6.029,13.2984,4.59997,2469.89,2020-4-09T15:51:20Z
2020-04-09T13:53:44Z,42.805,6.029,13.2982,4.60002,2469.876,2020-4-09T15:54:23Z
2020-04-09T13:56:47Z,42.805,6.029,13.2980,4.59999,2469.853,2020-4-09T15:57:26Z
2020-04-09T13:59:50Z,42.805,6.029,13.2988,4.60003,2469.83,2020-4-09T16:00:29Z
2020-04-09T14:02:53Z,42.805,6.029,13.2975,4.59994,2469.853,2020-4-09T16:03:33Z
2020-04-09T14:05:57Z,42.805,6.029,13.2981,4.60001,2469.876,2020-4-09T16:06:36Z
2020-04-09T14:09:00Z,42.805,6.029,13.2982,4.60015,2469.867,2020-4-09T16:09:39Z
2020-04-09T14:12:04Z,42.805,6.029,13.2986,4.60001,2469.853,2020-4-09T16:12:43Z
2020-04-09T14:15:07Z,42.805,6.029,13.2978,4.59994,2469.853,2020-4-09T16:15:46Z
2020-04-09T14:18:10Z,42.805,6.029,13.2980,4.59991,2469.867,2020-4-09T16:18:49Z
2020-04-09T14:21:13Z,42.805,6.029,13.2977,4.59992,2469.867,2020-4-09T16:21:52Z
2020-04-09T14:24:17Z,42.805,6.029,13.2978,4.59991,2469.867,2020-4-09T16:24:56Z
2020-04-09T14:27:20Z,42.805,6.029,13.2985,4.59997,2469.853,2020-4-09T16:27:59Z
2020-04-09T14:30:23Z,42.805,6.029,13.2982,4.60011,2469.844,2020-4-09T16:31:02Z
2020-04-09T14:33:26Z,42.805,6.029,13.2980,4.59998,2469.844,2020-4-09T16:34:05Z
2020-04-09T14:36:30Z,42.805,6.029,13.2976,4.59998,2469.853,2020-4-09T16:37:09Z
2020-04-09T14:39:33Z,42.805,6.029,13.2976,4.59991,2469.867,2020-4-09T16:40:12Z
2020-04-09T14:42:36Z,42.805,6.029,13.2985,4.60005,2469.844,2020-4-09T16:43:15Z
2020-04-09T14:45:39Z,42.805,6.029,13.2983,4.59992,2469.853,2020-4-09T16:46:19Z
2020-04-09T14:48:43Z,42.805,6.029,13.2979,4.60000,2469.853,2020-4-09T16:49:22Z
2020-04-09T14:51:46Z,42.805,6.029,13.2983,4.60001,2469.89,2020-4-09T16:52:25Z
2020-04-09T14:54:49Z,42.805,6.029,13.2978,4.59991,2469.821,2020-4-09T16:55:28Z
2020-04-09T14:57:52Z,42.805,6.029,13.2976,4.59989,2469.83,2020-4-09T16:58:32Z
2020-04-09T15:00:56Z,42.805,6.029,13.2981,4.59995,2469.844,2020-4-09T17:01:35Z
2020-04-09T15:03:59Z,42.805,6.029,13.2975,4.60008,2469.844,2020-4-09T17:04:38Z
2020-04-09T15:07:02Z,42.805,6.029,13.2982,4.59994,2469.844,2020-4-09T17:07:41Z
2020-04-09T15:10:05Z,42.805,6.029,13.2979,4.59998,2469.853,2020-4-09T17:10:45Z
2020-04-09T15:13:09Z,42.805,6.029,13.2979,4.60000,2469.83,2020-4-09T17:13:48Z
2020-04-09T15:16:12Z,42.805,6.029,13.2980,4.59996,2469.867,2020-4-09T17:16:51Z